This is the latest recevied weather packets stored in our database for station/object KG5WBN. If no packets are shown the sender has not sent any weather packets the latest 10 day(s).
| Time | Temp. | Humidity | Pressure | Rain* | Wind** | Luminosity | Snow |
|---|---|---|---|---|---|---|---|
| 1777960300 | 18.33° C | 63% | 1013.2 hPa | 0 mm | - | 0 W/m² | - |
| 1777959998 | 18.89° C | 63% | 1013.2 hPa | 0 mm | - | 0 W/m² | - |
| 1777959696 | 18.33° C | 62% | 1013.2 hPa | 0 mm | - | 0 W/m² | - |
| 1777959393 | 18.33° C | 61% | 1012.9 hPa | 0 mm | - | 0 W/m² | - |
| 1777959089 | 18.33° C | 59% | 1013.2 hPa | 0 mm | - | 0 W/m² | - |
| 1777958786 | 18.89° C | 58% | 1012.9 hPa | 0 mm | - | 0 W/m² | - |
| 1777958484 | 18.89° C | 57% | 1012.5 hPa | 0 mm | - | 0 W/m² | - |
| 1777958180 | 18.89° C | 55% | 1012.9 hPa | 0 mm | - | 0 W/m² | - |
| 1777957879 | 18.89° C | 55% | 1012.9 hPa | 0 mm | - | 0 W/m² | - |
| 1777957576 | 19.44° C | 54% | 1012.9 hPa | 0 mm | - | 0 W/m² | - |
| 1777957274 | 19.44° C | 54% | 1013.2 hPa | 0 mm | - | 0 W/m² | - |
| 1777956970 | 19.44° C | 53% | 1013.2 hPa | 0 mm | - | 0 W/m² | - |
| 1777956667 | 19.44° C | 54% | 1013.5 hPa | 0 mm | - | 0 W/m² | - |
| 1777956364 | 19.44° C | 53% | 1013.5 hPa | 0 mm | - | 0 W/m² | - |
| 1777956061 | 18.89° C | 53% | 1013.2 hPa | 0 mm | - | 0 W/m² | - |
| 1777955757 | 19.44° C | 53% | 1013.2 hPa | 0 mm | - | 0 W/m² | - |
| 1777955454 | 19.44° C | 53% | 1013.5 hPa | 0 mm | - | 0 W/m² | - |
| 1777955149 | 19.44° C | 52% | 1013.5 hPa | 0 mm | - | 0 W/m² | - |
| 1777954847 | 19.44° C | 52% | 1013.5 hPa | 0 mm | - | 0 W/m² | - |
| 1777954544 | 19.44° C | 52% | 1013.5 hPa | 0 mm | - | 0 W/m² | - |
| 1777954241 | 19.44° C | 52% | 1013.5 hPa | 0 mm | - | 0 W/m² | - |
| 1777953938 | 19.44° C | 51% | 1013.5 hPa | 0 mm | - | 0 W/m² | - |
| 1777953636 | 19.44° C | 50% | 1013.5 hPa | 0 mm | - | 0 W/m² | - |
| 1777953331 | 19.44° C | 48% | 1013.9 hPa | 0 mm | - | 0 W/m² | - |
| 1777953028 | 20° C | 47% | 1013.5 hPa | 0 mm | - | 0 W/m² | - |
* Rain latest hour (hover to see other rain measurements)
** Current wind speed in m/s (hover to see current wind gust speed)